Location: Moena
(46.3667°N, 11.6500°E)
Time: 15:35:29
(UTC+00:00)

Cosmos 1992 Rocket - Pass Details

Date: 03 March 2021
Orbit: 759 x 765 km, 74.0° (Epoch: 15 April)

Event Time Altitude Azimuth Distance (km) Brightness Sun altitude
Rises 17:47:09 0° 188° (S) 3,216 7.3 -8.5°
Reaches altitude 10° 17:49:32 10° 184° (S) 2,294 6.5 -8.9°
Maximum altitude 17:54:38 57° 106° (ESE) 896 4.1 -9.8°
Drops below altitude 10° 17:59:45 10° 29° (NNE) 2,308 6.2 -10.7°
Sets 18:02:09 0° 26° (NNE) 3,237 7.0 -11.1°
